Hourly Data Report for November 24, 2004

SHERBROOKE A
QUEBEC

45°26'00.000" N
71°41'00.000" W
241.40 m
7028124
71610
YSC

Download Data

Hourly Data (November 2004)
Hourly Data Report for November 24, 2004
TIME
LST
Temp Definition
°C
Dew Point Definition
°C
Rel Hum Definition
%
Precip. Amount Definition
mm

Wind Dir Definition
10's deg

Wind Spd Definition
km/h
Visibility Definition
km
Stn Press Definition
kPa
Hmdx Definition


Wind Chill Definition


Weather Definition


00:00 5.0 -2.0 61   13 6 15.0 98.65      
01:00 5.6 -0.8 63   15 6 15.0 98.62      
02:00 6.5 0.4 65   19 11 15.0 98.67      
03:00 6.6 0.9 67   20 9 15.0 98.69      
04:00 6.8 2.0 71   20 7 15.0 98.62      
05:00 6.6 2.3 74   18 4 15.0 98.62      
06:00 6.5 2.8 77   19 6 15.0 98.67     Rain
07:00 6.8 3.0 77     0 15.0 98.70      
08:00 7.0 3.9 81   19 7 12.9 98.72     Rain
09:00 7.4 4.2 80   18 7 16.1 98.70     Rain
10:00 7.7 4.8 82   20 13 16.1 98.71     Rain
11:00 8.0 4.8 80   19 7 16.1 98.64     Rain
12:00 8.1 5.3 82   17 11 19.3 98.55     Rain
13:00 8.1 5.0 81   19 9 19.3 98.44     Cloudy
14:00 8.4 4.7 78   19 9 19.3 98.43     Cloudy
15:00 7.3 5.8 90   17 6 16.1 98.35     Rain
16:00 6.8 5.7 93   11 4 11.3 98.34     Rain
17:00 6.5 5.3 92   11 11 6.4 98.19     Rain
18:00 6.0 5.0 93   7 9 9.7 98.00     Rain
19:00 6.5 5.1 91   10 7 12.9 97.81     Rain
20:00 7.1 5.6 90   13 15 15.0 97.57     Rain
21:00 7.6 5.4 86   14 19 15.0 97.36     Rain
22:00 7.5 5.7 88   14 17 15.0 97.08     Rain
23:00 8.3 6.5 88   13 13 8.0 96.84     Rain

Notes on Data Quality.

Legend

  • E = Estimated
  • M = Missing
  • NA = Not Available*
  • [empty] = Indicates an unobserved value
Date modified: